Date,TemperatureHighF,TemperatureAvgF,TemperatureLowF,DewpointHighF,DewpointAvgF,DewpointLowF,HumidityHigh,HumidityAvg,HumidityLow,PressureMaxIn,PressureMinIn,WindSpeedMaxMPH,WindSpeedAvgMPH,GustSpeedMaxMPH,PrecipitationSumIn
2013-4-1,46,32,21,25,21,18,91,66,43,0.00,40.00,6,2,13,0.00
2013-4-2,50,38,27,23,18,13,74,47,26,0.00,40.00,10,4,17,0.00
2013-4-3,52,41,35,32,24,13,73,52,31,0.00,40.00,13,6,23,0.00
2013-4-4,55,43,35,28,25,21,67,51,29,0.00,40.00,14,10,27,0.00
2013-4-5,45,39,32,31,26,19,83,61,41,0.00,40.00,25,14,46,0.00
2013-4-6,43,34,30,30,25,21,95,71,46,0.00,40.00,17,11,28,0.00
2013-4-7,41,33,28,29,23,19,95,66,46,0.00,40.00,28,12,48,0.00
2013-4-8,28,15,2,25,11,-2,94,85,68,0.00,40.00,8,3,18,0.00
2013-4-9,32,8,0,21,1,-4,87,77,41,0.00,40.00,5,2,12,0.13
2013-4-10,43,26,8,26,16,2,90,68,34,0.00,40.00,13,5,23,0.01
2013-4-11,41,33,26,26,24,19,96,69,52,0.00,40.00,14,4,27,0.00
2013-4-12,36,28,19,25,20,12,96,74,46,0.00,40.00,12,4,25,0.10
2013-4-13,44,31,18,30,21,7,94,69,35,0.00,40.00,34,15,68,0.08
2013-4-14,34,20,13,19,9,2,91,64,36,0.00,40.00,21,10,34,0.25
2013-4-15,28,13,8,17,9,5,90,84,55,0.00,40.00,3,1,9,0.14
2013-4-16,20,11,6,12,7,3,88,83,66,0.00,40.00,5,2,12,0.01
2013-4-17,26,13,3,12,6,0,88,75,50,0.00,40.00,7,2,14,0.07
2013-4-18,44,21,8,19,9,0,77,60,32,0.00,40.00,12,7,21,0.22
2013-4-19,47,30,22,25,19,13,83,63,35,0.00,40.00,14,8,25,0.04
2013-4-20,47,34,28,26,22,17,81,63,38,0.00,40.00,12,7,31,0.01
2013-4-21,45,28,12,26,20,9,90,73,31,0.00,40.00,8,5,26,0.01
2013-4-22,30,12,4,19,7,-1,89,82,51,0.00,40.00,8,4,17,0.11
2013-4-23,38,18,4,15,8,-2,86,65,37,0.00,40.00,7,3,17,0.26
2013-4-24,45,28,14,16,12,9,90,55,27,0.00,40.00,17,7,28,0.06
2013-4-25,53,39,31,14,10,6,41,32,17,0.00,40.00,20,12,36,0.00
2013-4-26,61,43,31,18,14,9,56,33,13,0.00,40.00,13,6,22,0.00
2013-4-27,58,47,40,23,18,15,42,32,20,0.00,40.00,22,16,44,0.00
2013-4-28,48,42,34,32,24,16,89,50,32,0.00,40.00,22,9,44,0.00
2013-4-29,46,38,28,31,23,14,97,57,32,0.00,40.00,25,16,45,0.00
2013-4-30,30,24,17,27,20,15,96,87,73,0.00,40.00,5,2,15,0.10